Location: La Silve
(44.2414°N, 5.8889°E)
Time: 18:25:00
(UTC+00:00)

Cosmos 1680 Rocket - Pass Details

Date: 01 December 2020
Orbit: 760 x 781 km, 74.1° (Epoch: 22 January)

Event Time Altitude Azimuth Distance (km) Brightness Sun altitude
Rises 17:41:38 0° 180° (S) 3,227 6.9 -17.9°
Reaches altitude 10° 17:44:05 10° 173° (S) 2,309 6.1 -18.3°
Maximum altitude 17:49:02 43° 103° (ESE) 1,079 3.8 -19.2°
Enters shadow 17:50:13 37° 70° (ENE) 1,190 3.9 -19.4°
